Home   Weather   Ely   Past weeks

Flag for United Kingdom Past Weather in Ely, England, United Kingdom — Yesterday and Last 2 Weeks

Now
60 °F

Clear.


Feels Like: 60 °F
Forecast: 55 / 67 °F
Wind: 10 mph from Southwest

Location: Mildenhall Royal Air Force Base

Current Time: Sep 28, 2016 at 1:09:15 AM

Latest Report: Sep 27, 2016 at 11:58 PM


Visibility: N/A

Pressure: 30.20 "Hg

Humidity: 100%

Dew Point: 60 °F

Location of ElyLocation

Past Weather in Ely — Graph

°F

Ely Temperature Yesterday

Maximum temperature yesterday: 69 °F (at 12:58 PM)
Minimum temperature yesterday: 51 °F (at 2:58 AM)
Average temperature yesterday: 61 °F

High & Low Weather Summary for the Past Weeks

 TemperatureHumidityPressure
High88 °F (Sep 14, 2:58 PM)100% (Sep 14, 5:58 AM)30.26 "Hg (Sep 14, 5:58 AM)
Low46 °F (Sep 23, 4:58 AM)35% (Sep 14, 2:58 PM)29.75 "Hg (Sep 15, 8:58 PM)
Average62 °F86%30.03 "Hg
* Reported Sep 12 11:58 PM — Sep 27 11:58 PM, Ely, Weather by CustomWeather, © 2016

Note: Actual official high and low records may vary slightly from our data, if they occured in-between our weather recording intervals... More about our weather records

Advertising

Ely Weather History for the Previous 24 Hours

Scroll right to see more
 ConditionsComfort  
Time TempWeatherWind HumidityBarometerVisibility
11:58 PM
Tue, Sep 27
60 °FClear.10 mph100%30.20 "HgN/A
10:58 PM61 °FClear.10 mph100%30.19 "HgN/A
9:58 PM63 °FPassing clouds.10 mph100%30.19 "HgN/A
8:58 PM63 °FPassing clouds.7 mph98%30.19 "HgN/A
7:58 PM65 °FMostly cloudy.10 mph90%30.18 "HgN/A
6:58 PM66 °FOvercast.9 mph90%30.17 "HgN/A
6:03 PM66 °FMostly cloudy.10 mph88%30.15 "HgN/A
5:58 PM66 °FMostly cloudy.12 mph91%30.16 "HgN/A
4:58 PM66 °FOvercast.13 mph84%30.15 "HgN/A
3:58 PM67 °FOvercast.15 mph79%30.14 "HgN/A
2:58 PM68 °FOvercast.17 mph72%30.14 "HgN/A
1:58 PM68 °FPartly sunny.18 mph73%30.15 "HgN/A
12:58 PM69 °FScattered clouds.17 mph67%30.15 "HgN/A
11:58 AM66 °FBroken clouds.20 mph74%30.16 "HgN/A
10:58 AM64 °FScattered clouds.12 mph78%30.15 "HgN/A
9:58 AM62 °FBroken clouds.14 mph83%30.15 "HgN/A
8:58 AM60 °FPartly sunny.16 mph82%30.15 "HgN/A
8:03 AM57 °FMostly cloudy.10 mph94%30.14 "HgN/A
7:58 AM57 °FBroken clouds.12 mph91%30.15 "HgN/A
6:58 AM54 °FPassing clouds.8 mph100%30.15 "HgN/A
5:58 AM52 °FClear.9 mph100%30.15 "HgN/A
4:58 AM51 °FPassing clouds.6 mph100%30.15 "HgN/A
3:58 AM52 °FClear.5 mph100%30.15 "HgN/A
2:58 AM51 °FPassing clouds.8 mph100%30.17 "HgN/A
1:58 AM51 °FClear.6 mph100%30.16 "HgN/A
Weather by CustomWeather, © 2016

See weather overviewHow to use our weather pages